Weather Roundup
Issued by NWS Corpus Christi, TX

Home | Current Version | Previous Version | Text Only | Print | Product List | Glossary On
Versions: 1 2 3 4 5 6 7 8 9 10 11 12 13 14 15 16 17 18 19 20 21 22 23 24 25 26 27 28 29 30 31 32 33 34 35 36 37 38 39 40 41 42 43 44 45 46 47 48 49 50
000
ASUS44 KCRP 170710
HRRCRP

SOUTH TEXAS REGIONAL WEATHER ROUNDUP
NATIONAL WEATHER SERVICE CORPUS CHRISTI TX
200 AM CDT WED SEP 17 2014


TXZ229>244-170800-
...CORPUS CHRISTI AREA OBSERVATIONS...

CITY           SKY/WX    TMP DP  RH WIND       PRES   REMARKS
CORPUS CHRISTI MOCLDY    79  76  90 S7        29.96S
NAS CORPUS CHR PTCLDY    81  79  94 S8        29.96S HX  90
ROCKPORT       PTCLDY    80  76  87 S7        29.96F
KINGSVILLE NAS MOCLDY    79  77  94 S9        29.96S
ALICE          PTCLDY    78  75  90 S8        29.95F
FALFURRIAS     CLEAR     65  61  87 S6        29.95S
$$

...VICTORIA AREA OBSERVATIONS...

CITY           SKY/WX    TMP DP  RH WIND       PRES   REMARKS
VICTORIA       PTCLDY    77  76  96 SE3       29.97F
BEEVILLE       MOCLDY    78  77  99 E3        29.96F
PLEASANTON     CLOUDY    77  74  91 E5        29.97F
SAN ANTONIO    CLOUDY    78  74  87 E7        29.99F
$$

...LAREDO AREA OBSERVATIONS...

CITY           SKY/WX    TMP DP  RH WIND       PRES   REMARKS
LAREDO         CLOUDY    78  78 100 E6        29.98S
COTULLA        CLOUDY   N/A N/A N/A SE7       29.96S
DEL RIO        MOCLDY    79  72  79 E7        29.97S
MCALLEN        CLEAR     77  76  96 SE5       29.96F
HEBBRONVILLE     N/A     76  75  94 S7        29.97F
$$

...OTHER TEXAS OBSERVATIONS...

CITY           SKY/WX    TMP DP  RH WIND       PRES   REMARKS
BROWNSVILLE    PTCLDY    77  76  96 SE6       29.97F
HOUSTON        CLOUDY    77  75  93 SE6       29.97F
COL. STATION   MOCLDY    76  74  93 E5        29.98F
AUSTIN         CLOUDY    75  73  93 CALM      29.98F
WACO           PTCLDY    73  71  93 CALM      29.99F
FORT WORTH     MOCLDY    80  70  71 S8        29.99S
WICHITA FALLS  MOCLDY    76  68  76 S9        29.99F
LUBBOCK        LGT RAIN  68  67  96 S7        30.11F FOG
EL PASO        CLOUDY    69  64  84 N14       30.09S
$$

...MARINE OBSERVATIONS...

STATION/POSITION TIME  SKY/WX   TEMP    WIND        PRES    VSBY  WAVE   SWELL
                                AIR SEA DIR/SP/G                  HT/PER HT/PER
                 (UTC)          (F)     (DEG/KT/KT) (MB)    (MI)  (FT/S) (FT/S)
PORT ARANSAS     0700            83 84  160/ 16/ 17 1014.8F
BUOY 90 E PORT A 0700            84 85  180/ 10/ 12 1015.0F         2/ 7   2/ 7
BUOY 45 SE BAFFI 0700            84 85  170/ 16/ 17 1013.8F         3/ 6   2/ 7
BUOY 200 E PT IS 0700            83 86  160/  6/  8 1015.1F         2/ 6   2/ 6
BUOY 15 E GALVES 0700            81 84  190/  6/  8 1014.7F         2/ 6   2/ 6
$$



USA.gov is the U.S. government's official web portal to all federal, state and local government web resources and services.